Back to catalog

STARLINK-35917

AliveCommunicationsVLEO
NORAD 66503·PAYLOAD·🇺🇸 United States

Launched Nov 15, 2025 from Cape Canaveral Space Force Station

Loading…

Next Passes (next 24 hours)

TLE

FreshSource: CelesTrak SupGP

Epoch: Sep 14, 2026, 20:58 UTC

1 66503C 25263U   26257.87409722  .00015444  00000+0  55926-3 0  2573
2 66503  43.0042   2.4245 0001835 275.0994 333.9447 15.27577060    19

Track STARLINK-35917 in real time with AllMySat

Download on the App Store